Regional Weather Roundup
Issued by NWS Binghamton, NY

Home | Current Version | Previous Version | Text Only | Print | Product List | Glossary On
Versions: 1 2 3 4 5 6 7 8 9 10 11 12 13 14 15 16 17 18 19 20 21 22 23 24 25 26 27 28 29 30 31 32 33 34 35 36 37 38 39 40 41 42 43 44 45 46 47 48 49 50
000
ASUS41 KBGM 030210
RWRBGM
RWRBGM
BINGHAMTON REGIONAL WEATHER ROUNDUP
NATIONAL WEATHER SERVICE BINGHAMTON NY
1000 PM EDT SUN AUG 02 2015

Note: "fair" indicates few or no clouds below 12,000 feet with no
significant weather and/or obstructions to visibility.

* = Station(s) that does not report precipitation, such as rain,
snow, etc, also no thunder or fog.

!NYZ009-015>018-022>025-036-037-044>046-055>057-062-030300
...CENTRAL NEW YORK...

CITY           SKY/WX    TMP DP  RH WIND       PRES   REMARKS
BINGHAMTON     CLEAR     70  58  65 S7        29.88R
CORTLAND       FAIR      70  59  68 SW5       29.85R
DANSVILLE      PTCLDY    71  59  65 SE6       29.78F
ELMIRA         PTCLDY    73  61  65 W7        29.82R
ITHACA         PTCLDY    71  60  68 S7        29.85R
HORNELL          N/A     66  59  77 E3        29.84F
MONTICELLO     CLEAR     70  57  64 SW5       29.91F
NORWICH        CLEAR     68  57  68 CALM      29.86R
ONEONTA        CLEAR     70  54  56 CALM      29.89S
PENN YAN       PTCLDY    74  60  61 S7        29.79F
ROME           MOCLDY    71  57  61 E6        29.80S
SIDNEY         CLEAR     72  63  73 SW3       29.86S
SYRACUSE       CLOUDY    71  59  65 SE3       29.75F
$$

!PAZ038>040-043-044-047-048-072-030300
...NORTHEAST PENNSYLVANIA...

CITY           SKY/WX    TMP DP  RH WIND       PRES   REMARKS
HAZLETON       CLEAR     72  59  64 S3        29.95S
SCRANTON       CLEAR     77  57  50 VRB5      29.88S
$$
&&
KEY
WCI = WIND CHILL INDEX
VSB = VISIBILITY
HX  = HEAT INDEX
$$



USA.gov is the U.S. government's official web portal to all federal, state and local government web resources and services.